Content
SEND FEEDBACK

Daily
Averages
Monthly
Summary
United States of America

BEAVER ISLAND, MICHIGAN


Home > North America > United States > Michigan
Elevation: 627 feet     Latitude: 45 43N     Longitude: 085 31W

WEATHER
 
SELECT A DAY
Number of Records: 328,024;   Date Range: 9/12/01 - 10/21/14
 
SHARE

PRINT THIS DATA

[ ← Previous Day ]
WEATHER ALMANAC - AUGUST 27, 2014
[ Next Day → ]
[ °C ]   °F
Weather ElementAverageHighLow
Temperature60.4 °F67.5 °F (6:54 pm)47.3 °F (11:35 pm)
Dewpoint50.4 °F54.9 °F (12:16 am)43.9 °F (3:54 pm)
Humidity70.7 %95 % (4:15 am)48 % (2:15 pm)
Barometer30.16 in30.20 in (10:35 am)30.13 in (2:35 am)
Wind Speed4.7 mph15 mph (1:34 pm)
Wind Gust18.4 mph (3:35 pm)
Weather ElementAverage
Visibility10 mi
Wind DirectionSSW (216.7 °)

Weather ElementTotal
Precipitation---
Heating Degree Days7.6 (Base 65)
Growing Degree Days7.4 (Base 50)
Averaged from 70 records on August 27, 2014
WEATHER CONDITIONS BREAKOUT
WIND DIRECTION BREAKOUT
WEATHER BY HOUR - AUGUST 27, 2014
[ °C ]   °F
Local TimeTemperatureDewpointHumidityBarometerVisibilityWind DirectionWind SpeedGust SpeedPrecipitationEventsConditions
12:15 AM57.6 °F50.5 °F77 %30.13 in10.0 miNorth (360°)3.5 mphClear
12:35 AM57.2 °F50.9 °F79 %30.13 in10.0 miNorth (360°)3.5 mphClear
1:15 AM56.8 °F50.9 °F80 %30.13 in10.0 miNorth (10°)3.5 mphClear
1:34 AM55.9 °F50.9 °F83 %30.13 in10.0 miNorth (10°)3.5 mphClear
1:55 AM56.7 °F51.3 °F82 %30.13 in10.0 miCalmClear
2:15 AM58.5 °F51.1 °F76 %30.13 in10.0 miNorth (350°)3.5 mphClear
2:34 AM58.6 °F51.1 °F76 %30.13 in10.0 miNNW (340°)3.5 mphClear
2:54 AM58.3 °F51.1 °F77 %30.13 in10.0 miCalmClear
3:15 AM59.0 °F51.1 °F75 %30.14 in10.0 miNNW (330°)3.5 mphClear
3:35 AM59.2 °F50.9 °F74 %30.13 in10.0 miNorth (350°)4.6 mphClear
3:55 AM59.2 °F50.9 °F74 %30.13 in10.0 miNorth (360°)3.5 mphClear
4:15 AM59.4 °F51.6 °F76 %30.14 in10.0 miNNW (330°)4.6 mphClear
4:35 AM59.7 °F51.6 °F75 %30.14 in10.0 miNNW (330°)3.5 mphClear
4:54 AM59.9 °F52.0 °F75 %30.15 in10.0 miNNW (330°)5.8 mphClear
5:15 AM59.4 °F52.0 °F77 %30.15 in10.0 miNNW (340°)3.5 mphClear
5:35 AM58.6 °F52.0 °F79 %30.15 in10.0 miNNW (330°)3.5 mphClear
5:55 AM58.1 °F52.2 °F81 %30.15 in10.0 miNNW (330°)3.5 mphClear
6:15 AM58.1 °F52.2 °F81 %30.14 in10.0 miNNW (330°)3.5 mphClear
6:34 AM58.3 °F52.7 °F82 %30.15 in10.0 miNW (320°)3.5 mphClear
6:55 AM58.6 °F52.9 °F81 %30.16 in10.0 miNW (320°)3.5 mphClear
7:14 AM59.0 °F53.2 °F81 %30.16 in10.0 miNNW (340°)3.5 mphScattered Clouds
7:35 AM58.6 °F53.4 °F83 %30.15 in10.0 miNNW (340°)3.5 mphRainLight Rain
7:55 AM58.1 °F54.0 °F86 %30.16 in10.0 miCalmRainLight Rain
8:15 AM57.4 °F54.9 °F91 %30.16 in10.0 miCalmOvercast
8:35 AM58.1 °F54.7 °F88 %30.16 in10.0 miCalmRainLight Rain
8:55 AM58.1 °F54.5 °F88 %30.15 in10.0 miCalmMostly Cloudy
9:15 AM58.5 °F54.1 °F86 %30.16 in10.0 miNNW (340°)3.5 mphScattered Clouds
9:34 AM61.0 °F54.0 °F78 %30.18 in10.0 miNNW (340°)6.9 mphScattered Clouds
9:54 AM61.3 °F52.0 °F71 %30.17 in10.0 miNNW (330°)5.8 mphScattered Clouds
10:15 AM61.3 °F50.5 °F68 %30.17 in10.0 miNW (310°)3.5 mphClear
10:34 AM62.4 °F50.5 °F65 %30.18 in10.0 miWNW (300°)4.6 mphClear
11:15 AM64.2 °F49.5 °F59 %30.19 in10.0 miNW (320°)6.9 mphOvercast
11:35 AM63.9 °F50.4 °F61 %30.20 in10.0 miWNW (290°)6.9 mphOvercast
11:55 AM64.0 °F48.9 °F58 %30.19 in10.0 miWest (280°)5.8 mphOvercast
12:15 PM65.5 °F49.8 °F57 %30.19 in10.0 miWNW (290°)6.9 mphScattered Clouds
12:34 PM64.9 °F50.5 °F60 %30.19 in10.0 miWest (280°)4.6 mphClear
12:55 PM66.6 °F50.9 °F57 %30.18 in10.0 miWest (280°)8.1 mphClear
1:15 PM66.4 °F50.7 °F57 %30.18 in10.0 miWest (260°)10.4 mphMostly Cloudy
1:35 PM66.2 °F51.3 °F59 %30.18 in10.0 miWSW (250°)9.2 mphOvercast
1:55 PM66.7 °F51.3 °F57 %30.18 in10.0 miWest (270°)9.2 mphOvercast
2:14 PM65.3 °F51.8 °F62 %30.18 in10.0 miWest (270°)8.1 mphOvercast
2:34 PM67.5 °F51.8 °F57 %30.18 in10.0 miWest (270°)8.1 mphMostly Cloudy
2:54 PM66.4 °F52.3 °F61 %30.18 in10.0 miWest (260°)11.5 mph17.3 mphOvercast
3:15 PM67.3 °F53.4 °F61 %30.18 in10.0 miWest (260°)11.5 mphMostly Cloudy
3:35 PM67.5 °F53.6 °F61 %30.17 in10.0 miWSW (250°)15.0 mph18.4 mphScattered Clouds
3:55 PM67.1 °F52.9 °F60 %30.17 in10.0 miWest (260°)13.8 mphScattered Clouds
4:15 PM67.1 °F52.3 °F59 %30.16 in10.0 miWSW (240°)10.4 mph17.3 mphScattered Clouds
4:35 PM67.1 °F52.5 °F59 %30.17 in10.0 miWSW (250°)11.5 mphClear
4:54 PM67.1 °F52.2 °F59 %30.17 in10.0 miWSW (250°)9.2 mphClear
5:14 PM67.5 °F52.9 °F59 %30.17 in10.0 miWSW (250°)9.2 mphScattered Clouds
5:35 PM67.1 °F52.7 °F60 %30.16 in10.0 miNW (320°)8.1 mphScattered Clouds
5:54 PM66.0 °F51.1 °F59 %30.17 in10.0 miWNW (290°)6.9 mphMostly Cloudy
6:15 PM66.9 °F47.7 °F50 %30.16 in10.0 miNorth (350°)6.9 mphScattered Clouds
6:34 PM66.0 °F46.8 °F50 %30.16 in10.0 miNW (320°)5.8 mphMostly Cloudy
6:55 PM65.3 °F45.9 °F49 %30.16 in10.0 miNNW (340°)6.9 mphScattered Clouds
7:15 PM65.3 °F45.3 °F48 %30.15 in10.0 miNorth (360°)6.9 mphScattered Clouds
7:35 PM63.9 °F44.6 °F50 %30.15 in10.0 miNorth (10°)3.5 mphClear
7:55 PM62.8 °F43.9 °F50 %30.16 in10.0 miNorth (360°)4.6 mphClear
8:15 PM61.0 °F44.1 °F54 %30.16 in10.0 miNorth (10°)3.5 mphClear
8:35 PM59.2 °F45.0 °F59 %30.16 in10.0 miCalmClear
8:55 PM57.2 °F45.9 °F66 %30.16 in10.0 miCalmClear
9:15 PM54.9 °F46.2 °F73 %30.17 in10.0 miCalmClear
9:35 PM52.3 °F47.3 °F83 %30.17 in10.0 miCalmClear
9:55 PM51.4 °F47.3 °F86 %30.18 in7.0 miCalmClear
10:15 PM50.5 °F46.9 °F87 %30.18 in10.0 miCalmClear
10:34 PM48.7 °F45.7 °F89 %30.18 in10.0 miCalmClear
10:55 PM49.3 °F46.6 °F90 %30.18 in10.0 miCalmClear
11:14 PM48.0 °F45.9 °F92 %30.18 in10.0 miCalmClear
11:35 PM47.3 °F45.7 °F94 %30.18 in10.0 miCalmClear
11:55 PM47.3 °F45.9 °F95 %30.17 in10.0 miCalmClear
Hourly data recorded from KSJX, located miles away from Beaver Island, Michigan







STORIES FROM OUR PARTNERS